sat.trackr.live / text

‹ back to catalog

STARLINK-31493

NORAD 59329 · 2024-057K

PAYLOAD ACTIVE UNKNOWN

§ Identity

Operator
Country
US
Launch date
2024-03-25
Launch site
AFETR
Launch vehicle
Mass (kg)
RCS (m²)

Purposes: comms

External: N2YO · Heavens-Above · Gunter

§ Orbital elements

Epoch: 2026-09-20T02:30:29.682144Z

Period
94.27 min
Inclination
43.0013°
Eccentricity
0.0001255
Mean motion
15.27565419 rev/d
Perigee alt
482.2 km
Apogee alt
484.0 km
Semi-major
6,861.2 km
B*
-3.0191e-5
RAAN
169.0048°
Arg perigee
277.0883°
Mean anomaly
82.9826°
Rev number
13,957

§ Raw data

STARLINK-314931 59329U 24057K   26263.10451021 -.00001092  00000+0 -30191-4 0  99902 59329  43.0013 169.0048 0001255 277.0883  82.9826 15.27565419139572

JSON: /api/v1/satellites/59329 · /tle

For live sub-satellite position, see the globe view (requires WebGL).

§ Visibility from observer

Set your observer location to see the next 7 days of passes ≥ 10°. The values pass through the URL so the page stays shareable.

No JS? Fill the form by hand. The geolocation button needs JavaScript.